Showing default

QIANFAN-34, 61567

Orbit data source: Space-Track

QIANFAN-34, 61567 is a Chinese payload satellite in LEO that was launched on Tue, 15 Oct 2024 UTC via a CHANG ZHENG 6A launch vehicle from the Taiyaun Space Center, China (TSC). Payload-class satellites include a variety of spacecraft equipped with specific instruments for various scientific and technological missions. These include communications satellites like Starlink; space stations such as the ISS; scientific satellites like the Hubble; Earth observation satellites from companies like Planet Labs, Umbra, and HawkEye 360; GPS; miniature CubeSats for education and research; and military/defense satellites.

Loading next visibility...
Identifier
61567, 2024-185R
Orbit
LEO
Country
Flag of CNCN / PRC
Related business
Manufacturer
GESIH/SECM
Mission
Partially operational Commercial Communications
Bus & Motor
QIANFAN, Unknown motor
Mass
267 kg wet, ~267 kg dry
Launch date (UTC)
2024-10-15 (2 years ago)
Launch vehicle
CHANG ZHENG 6A
Launch site
Taiyaun Space Center, China (TSC)
Object type
Payload
Rocket body
Debris
Shape & HBR
Box + 1 Pan, 5.0 m
Radar Cross Section
13.200 m², Large (>1 m²)

Expand to show TLE details & history
Last TLE update: 15 hours ago

TLE from 15 hours ago
0 QIANFAN-34
1 61567U 24185R   26235.58984639  .00000265  00000-0  16315-3 0  9997
2 61567  88.9769  49.7332 0004357 243.7808 116.2925 14.02503493104937
Epoch: 2026-08-23T14:09Z
TLE epoch observation values (Epoch: 2026-08-23T14:09:22.728Z)
Latitude
0.00004°
Longitude
-134.49522°
Altitude
889.57 km
Speed
7.407 km/s
True Right ascension
03h 18m 55s
True Declination
0° 00' 00"
Sunlit
Object was in daylight at epoch
Visualization orbit readout
Latitude
Unknown
Longitude
Unknown
Altitude
Unknown
Speed
Unknown
Apparent Right ascension
Unknown
Apparent Declination
Unknown
Sunlit
N/A
Visualization observer readout
Local Sidereal Time
20:47:02
Azimuth
Unknown
Elevation
Unknown
Doppler factor
Unknown
Orbital elements
Apogee altitude
885.279 km
Perigee altitude
878.952 km
Semi-major axis
7,260.252 km
Eccentricity
0.00044
Inclination
88.9769°
RAAN
49.7332°
Arg. of periapsis
243.7808°
True anomaly
116.33725°
Mean anomaly
116.2925°
Eccentric anomaly
116.31488°
Mean motion
3.50845 °/min
Orbital period
102.61 mins
BSTAR
0.00016315
Loading maneuver chart data...
Computing Atmospheric mass density...
Loading historical data...
Loading historical data...
Loading historical data...
Loading historical data...
Loading historical data...
Loading historical data...
Loading historical data...

Documentation

Showing up to 5 results
|